VJT0471 LEPA-LIML

Flight info

Callsign VJT0471
Flight time 1h 10m
Altitude 34000
Route ISTER DCT NIVDA DCT OMEDA DCT RAPUR/N0400F200 DCT TORTU/N0388F180 M858 ITCAP
Aircraft CL60/M-SBDE1E2E3FGHIJ1J4J5J7M3RWXYZ/LB1V1D1

Departure

Time 2026-05-05 20:36
Airport Palma de Mallorca Airport (LEPA)

Arrival

Time 2026-05-05 21:47
Airport Milano Linate Airport (LIML)
Time Latitude Longitude Altitude Speed Heading
2026-05-05 19:51 39.54086 2.72415 21 ft 0 kts 148°
2026-05-05 20:23 39.54085 2.72415 21 ft 0 kts 148°
2026-05-05 20:23 39.54087 2.72414 21 ft 1 kts 148°
2026-05-05 20:23 39.54100 2.72403 20 ft 2 kts 148°
2026-05-05 20:24 39.54112 2.72393 20 ft 1 kts 148°
2026-05-05 20:24 39.54117 2.72388 20 ft 1 kts 115°
2026-05-05 20:24 39.54116 2.72379 20 ft 0 kts 59°
2026-05-05 20:24 39.54114 2.72374 20 ft 0 kts 57°
2026-05-05 20:27 39.54119 2.72385 20 ft 3 kts 57°
2026-05-05 20:27 39.54143 2.72435 21 ft 8 kts 59°
2026-05-05 20:27 39.54178 2.72508 25 ft 10 kts 59°
2026-05-05 20:27 39.54190 2.72583 26 ft 9 kts 97°
2026-05-05 20:28 39.54222 2.72672 29 ft 12 kts 59°
2026-05-05 20:28 39.54263 2.72758 32 ft 7 kts 59°
2026-05-05 20:28 39.54268 2.72828 33 ft 10 kts 106°
2026-05-05 20:28 39.54304 2.72925 35 ft 14 kts 60°
2026-05-05 20:29 39.54361 2.73056 38 ft 18 kts 56°
2026-05-05 20:29 39.54444 2.73218 37 ft 23 kts 59°
2026-05-05 20:29 39.54532 2.73403 40 ft 25 kts 59°
2026-05-05 20:29 39.54624 2.73591 36 ft 20 kts 60°
2026-05-05 20:30 39.54694 2.73759 37 ft 22 kts 59°
2026-05-05 20:30 39.54778 2.73924 38 ft 21 kts 59°
2026-05-05 20:30 39.54833 2.74000 37 ft 6 kts
2026-05-05 20:30 39.54877 2.73976 39 ft 7 kts 330°
2026-05-05 20:31 39.54900 2.73959 40 ft 1 kts 329°
2026-05-05 20:31 39.54926 2.73939 40 ft 7 kts 329°
2026-05-05 20:31 39.54984 2.73894 42 ft 11 kts 329°
2026-05-05 20:31 39.55058 2.73834 45 ft 13 kts 329°
2026-05-05 20:32 39.55139 2.73772 46 ft 9 kts 341°
2026-05-05 20:32 39.55185 2.73821 45 ft 7 kts 43°
2026-05-05 20:32 39.55248 2.73794 44 ft 13 kts 329°
2026-05-05 20:32 39.55350 2.73713 38 ft 21 kts 329°
2026-05-05 20:33 39.55508 2.73588 25 ft 29 kts 330°
2026-05-05 20:33 39.55629 2.73500 19 ft 14 kts 354°
2026-05-05 20:33 39.55706 2.73608 16 ft 21 kts 61°
2026-05-05 20:33 39.55780 2.73768 13 ft 20 kts 58°
2026-05-05 20:34 39.55857 2.73935 15 ft 20 kts 58°
2026-05-05 20:34 39.55932 2.74092 18 ft 20 kts 58°
2026-05-05 20:34 39.55985 2.74204 21 ft 8 kts 59°
2026-05-05 20:34 39.56012 2.74262 21 ft 10 kts 58°
2026-05-05 20:35 39.56064 2.74370 18 ft 17 kts 59°
2026-05-05 20:35 39.56106 2.74444 16 ft 7 kts 34°
2026-05-05 20:35 39.56168 2.74447 16 ft 11 kts 333°
2026-05-05 20:35 39.56238 2.74385 16 ft 10 kts 309°
2026-05-05 20:36 39.56233 2.74286 16 ft 15 kts 240°
2026-05-05 20:36 39.56029 2.73852 14 ft 110 kts 239°
2026-05-05 20:36 39.55492 2.72714 299 ft 172 kts 238°
2026-05-05 20:36 39.54837 2.71349 1176 ft 183 kts 238°
2026-05-05 20:37 39.54116 2.69902 1865 ft 207 kts 238°
2026-05-05 20:37 39.53589 2.68851 2686 ft 215 kts 239°
2026-05-05 20:37 39.52516 2.66709 4253 ft 223 kts 239°
2026-05-05 20:37 39.51658 2.64996 4960 ft 235 kts 239°
2026-05-05 20:38 39.50794 2.63280 6458 ft 233 kts 240°
2026-05-05 20:38 39.49956 2.61619 8088 ft 225 kts 239°
2026-05-05 20:38 39.48831 2.60105 9026 ft 252 kts 212°
2026-05-05 20:38 39.47064 2.59601 10078 ft 278 kts 182°
2026-05-05 20:39 39.45171 2.60156 11362 ft 293 kts 161°
2026-05-05 20:39 39.43525 2.61737 12654 ft 309 kts 136°
2026-05-05 20:39 39.42490 2.64279 13516 ft 337 kts 109°
2026-05-05 20:39 39.42297 2.67319 13901 ft 346 kts 92°
2026-05-05 20:40 39.42361 2.70435 14010 ft 344 kts 91°
2026-05-05 20:40 39.42423 2.73574 14147 ft 358 kts 92°
2026-05-05 20:40 39.42469 2.76815 15176 ft 365 kts 92°
2026-05-05 20:40 39.42504 2.80031 16510 ft 362 kts 93°
2026-05-05 20:41 39.42534 2.83286 17608 ft 365 kts 93°
2026-05-05 20:41 39.42561 2.86599 18546 ft 372 kts 93°
2026-05-05 20:41 39.42584 2.89928 19425 ft 378 kts 93°
2026-05-05 20:41 39.42604 2.93357 20298 ft 385 kts 93°
2026-05-05 20:42 39.42623 2.96804 21173 ft 390 kts 93°
2026-05-05 20:42 39.42639 3.00318 21998 ft 395 kts 93°
2026-05-05 20:42 39.42653 3.03916 22821 ft 400 kts 93°
2026-05-05 20:42 39.42665 3.07517 23618 ft 405 kts 93°
2026-05-05 20:43 39.42675 3.11154 24413 ft 410 kts 93°
2026-05-05 20:43 39.42684 3.14832 25169 ft 414 kts 93°
2026-05-05 20:43 39.42690 3.18595 25908 ft 419 kts 94°
2026-05-05 20:43 39.42724 3.22430 26646 ft 424 kts 89°
2026-05-05 20:44 39.43286 3.26261 27319 ft 433 kts 72°
2026-05-05 20:44 39.44626 3.29841 27944 ft 438 kts 59°
2026-05-05 20:44 39.46220 3.33298 28450 ft 446 kts 58°
2026-05-05 20:44 39.47819 3.36775 29048 ft 450 kts 59°
2026-05-05 20:45 39.51040 3.43793 30147 ft 459 kts 59°
2026-05-05 20:45 39.52661 3.47331 30692 ft 463 kts 59°
2026-05-05 20:45 39.54310 3.50933 31254 ft 466 kts 59°
2026-05-05 20:46 39.55976 3.54576 31729 ft 471 kts 59°
2026-05-05 20:46 39.57647 3.58234 32225 ft 474 kts 59°
2026-05-05 20:46 39.59313 3.61884 32712 ft 476 kts 59°
2026-05-05 20:46 39.61010 3.65608 33156 ft 480 kts 60°
2026-05-05 20:47 39.62717 3.69356 33535 ft 483 kts 60°
2026-05-05 20:47 39.64410 3.73080 33866 ft 488 kts 60°
2026-05-05 20:47 39.67922 3.80817 33902 ft 509 kts 60°
2026-05-05 20:48 39.71591 3.88919 33910 ft 526 kts 60°
2026-05-05 20:48 39.75289 3.97109 33911 ft 531 kts 60°
2026-05-05 20:49 39.79026 4.05404 33915 ft 530 kts 60°
2026-05-05 20:49 39.82755 4.13704 33917 ft 530 kts 60°
2026-05-05 20:50 39.85838 4.20582 33919 ft 530 kts 60°
2026-05-05 20:50 39.90171 4.30240 33919 ft 530 kts 60°
2026-05-05 20:51 39.93885 4.38535 33920 ft 531 kts 60°
2026-05-05 20:51 39.97588 4.46829 33927 ft 531 kts 60°
2026-05-05 20:52 40.01311 4.55189 33930 ft 531 kts 60°
2026-05-05 20:52 40.05021 4.63537 33928 ft 531 kts 59°
2026-05-05 20:53 40.09349 4.71294 33926 ft 530 kts 49°
2026-05-05 20:53 40.14069 4.78688 33926 ft 530 kts 49°
2026-05-05 20:54 40.18802 4.86130 33921 ft 531 kts 49°
2026-05-05 20:54 40.23530 4.93583 33922 ft 531 kts 49°
2026-05-05 20:55 40.28240 5.01026 33921 ft 531 kts 49°
2026-05-05 20:55 40.32962 5.08506 33920 ft 531 kts 50°
2026-05-05 20:56 40.37674 5.15988 33925 ft 531 kts 49°
2026-05-05 20:56 40.42349 5.23430 33922 ft 531 kts 50°
2026-05-05 20:57 40.47062 5.30950 33924 ft 531 kts 49°
2026-05-05 20:57 40.51732 5.38418 33923 ft 531 kts 49°
2026-05-05 20:58 40.56402 5.45906 33927 ft 531 kts 50°
2026-05-05 20:58 40.61081 5.53425 33924 ft 531 kts 49°
2026-05-05 20:59 40.65753 5.60952 33926 ft 531 kts 50°
2026-05-05 20:59 40.70410 5.68473 33929 ft 531 kts 50°
2026-05-05 21:00 40.75070 5.76017 33927 ft 531 kts 50°
2026-05-05 21:00 40.79705 5.83540 33926 ft 531 kts 50°
2026-05-05 21:01 40.84352 5.91100 33928 ft 530 kts 50°
2026-05-05 21:01 40.88995 5.98672 33929 ft 530 kts 50°
2026-05-05 21:02 40.93601 6.06203 33927 ft 530 kts 51°
2026-05-05 21:02 40.98251 6.13824 33929 ft 530 kts 51°
2026-05-05 21:03 41.02859 6.21395 33931 ft 531 kts 51°
2026-05-05 21:03 41.07482 6.29014 33935 ft 530 kts 51°
2026-05-05 21:04 41.12088 6.36623 33935 ft 530 kts 51°
2026-05-05 21:04 41.16692 6.44247 33935 ft 531 kts 51°
2026-05-05 21:05 41.21278 6.51862 33938 ft 531 kts 51°
2026-05-05 21:05 41.25916 6.59508 33937 ft 531 kts 50°
2026-05-05 21:06 41.30599 6.67025 33934 ft 531 kts 51°
2026-05-05 21:06 41.35366 6.74699 33942 ft 530 kts 51°
2026-05-05 21:07 41.40053 6.82267 33938 ft 529 kts 51°
2026-05-05 21:07 41.44715 6.89799 33939 ft 528 kts 50°
2026-05-05 21:08 41.49365 6.97330 33939 ft 528 kts 51°
2026-05-05 21:08 41.54031 7.04911 33940 ft 528 kts 51°
2026-05-05 21:09 41.58677 7.12480 33941 ft 529 kts 51°
2026-05-05 21:09 41.63322 7.20068 33929 ft 529 kts 51°
2026-05-05 21:10 41.67965 7.27675 33919 ft 529 kts 51°
2026-05-05 21:10 41.72621 7.35323 33922 ft 529 kts 50°
2026-05-05 21:11 41.77262 7.42967 33923 ft 529 kts 51°
2026-05-05 21:11 41.81885 7.50602 33921 ft 529 kts 51°
2026-05-05 21:12 41.86505 7.58250 33922 ft 529 kts 51°
2026-05-05 21:12 41.91130 7.65927 33922 ft 529 kts 51°
2026-05-05 21:13 41.95758 7.73632 33922 ft 529 kts 51°
2026-05-05 21:13 42.00354 7.81299 33928 ft 529 kts 52°
2026-05-05 21:14 42.04950 7.88989 33928 ft 529 kts 52°
2026-05-05 21:14 42.09554 7.96711 33929 ft 529 kts 51°
2026-05-05 21:15 42.14156 8.04449 33934 ft 529 kts 51°
2026-05-05 21:15 42.18772 8.12230 33935 ft 529 kts 51°
2026-05-05 21:16 42.23356 8.19979 33939 ft 529 kts 51°
2026-05-05 21:16 42.27943 8.27703 33942 ft 529 kts 49°
2026-05-05 21:17 42.33269 8.34580 33943 ft 527 kts 35°
2026-05-05 21:17 42.39455 8.39727 33952 ft 522 kts 21°
2026-05-05 21:18 42.46141 8.43529 33956 ft 521 kts 17°
2026-05-05 21:18 42.52858 8.47254 33946 ft 521 kts 18°
2026-05-05 21:19 42.59612 8.51011 33952 ft 523 kts 18°
2026-05-05 21:19 42.66322 8.54753 33946 ft 523 kts 18°
2026-05-05 21:20 42.73090 8.58538 33957 ft 523 kts 17°
2026-05-05 21:20 42.79839 8.62322 33953 ft 523 kts 17°
2026-05-05 21:21 42.86599 8.66120 33951 ft 524 kts 18°
2026-05-05 21:21 42.93357 8.69927 33950 ft 525 kts 18°
2026-05-05 21:22 43.00186 8.73784 33951 ft 525 kts 18°
2026-05-05 21:22 43.06982 8.77631 33948 ft 525 kts 18°
2026-05-05 21:23 43.13789 8.81494 33950 ft 524 kts 18°
2026-05-05 21:23 43.20597 8.85367 33948 ft 524 kts 18°
2026-05-05 21:24 43.27341 8.89212 33949 ft 525 kts 18°
2026-05-05 21:24 43.34095 8.93071 33949 ft 526 kts 18°
2026-05-05 21:25 43.41029 8.95919 33949 ft 516 kts
2026-05-05 21:25 43.48144 8.96969 33949 ft 511 kts 358°
2026-05-05 21:26 43.55213 8.97790 33949 ft 511 kts 358°
2026-05-05 21:26 43.62300 8.98619 33949 ft 510 kts 358°
2026-05-05 21:27 43.69361 8.99447 33951 ft 511 kts 358°
2026-05-05 21:27 43.72885 8.99862 33782 ft 513 kts 358°
2026-05-05 21:27 43.76423 9.00279 33215 ft 512 kts 358°
2026-05-05 21:28 43.79983 9.00702 32585 ft 509 kts 358°
2026-05-05 21:28 43.83493 9.01118 31955 ft 507 kts 358°
2026-05-05 21:28 43.86964 9.01530 31311 ft 506 kts 358°
2026-05-05 21:28 43.90488 9.01949 30630 ft 502 kts 358°
2026-05-05 21:29 43.93915 9.02360 29990 ft 495 kts 358°
2026-05-05 21:29 43.97320 9.02768 29319 ft 489 kts 359°
2026-05-05 21:29 44.00715 9.03175 28679 ft 483 kts 359°
2026-05-05 21:29 44.04021 9.03716 27987 ft 480 kts
2026-05-05 21:30 44.07276 9.04575 27286 ft 476 kts
2026-05-05 21:30 44.10512 9.05439 26577 ft 472 kts
2026-05-05 21:30 44.13728 9.06296 25864 ft 468 kts
2026-05-05 21:30 44.16904 9.07143 25156 ft 462 kts
2026-05-05 21:31 44.20065 9.07985 24442 ft 457 kts
2026-05-05 21:31 44.23173 9.08813 23735 ft 452 kts
2026-05-05 21:31 44.26219 9.09626 23025 ft 446 kts
2026-05-05 21:31 44.29262 9.10440 22317 ft 442 kts
2026-05-05 21:32 44.32240 9.11236 21634 ft 436 kts
2026-05-05 21:32 44.35208 9.12030 20939 ft 431 kts
2026-05-05 21:32 44.38116 9.12809 20268 ft 426 kts
2026-05-05 21:32 44.41001 9.13581 19599 ft 422 kts
2026-05-05 21:33 44.43857 9.14347 18922 ft 416 kts
2026-05-05 21:33 44.46689 9.15106 18231 ft 411 kts
2026-05-05 21:33 44.49482 9.15855 17558 ft 405 kts
2026-05-05 21:33 44.52228 9.16593 16896 ft 399 kts
2026-05-05 21:34 44.54901 9.17311 16284 ft 393 kts
2026-05-05 21:34 44.57566 9.18028 15632 ft 386 kts
2026-05-05 21:34 44.60193 9.18734 15118 ft 381 kts
2026-05-05 21:34 44.62764 9.19427 14585 ft 375 kts
2026-05-05 21:35 44.65287 9.20107 14099 ft 368 kts
2026-05-05 21:35 44.67773 9.20777 13611 ft 361 kts
2026-05-05 21:35 44.70234 9.21442 13139 ft 354 kts
2026-05-05 21:35 44.72630 9.22089 12664 ft 349 kts
2026-05-05 21:36 44.74971 9.22721 12214 ft 343 kts
2026-05-05 21:36 44.77293 9.23349 11755 ft 338 kts
2026-05-05 21:36 44.79580 9.23968 11313 ft 331 kts
2026-05-05 21:36 44.81836 9.24578 10882 ft 326 kts
2026-05-05 21:37 44.84028 9.25172 10451 ft 322 kts
2026-05-05 21:37 44.86213 9.25764 10027 ft 318 kts
2026-05-05 21:37 44.88355 9.26345 9651 ft 313 kts
2026-05-05 21:37 44.90503 9.26928 9215 ft 310 kts
2026-05-05 21:38 44.92585 9.27494 8801 ft 305 kts
2026-05-05 21:38 44.94632 9.28050 8397 ft 296 kts
2026-05-05 21:38 44.96635 9.28596 8010 ft 285 kts
2026-05-05 21:38 44.98535 9.29114 7668 ft 274 kts
2026-05-05 21:39 45.00375 9.29615 7295 ft 266 kts
2026-05-05 21:39 45.02152 9.30100 6964 ft 257 kts
2026-05-05 21:39 45.03893 9.30574 6654 ft 252 kts
2026-05-05 21:39 45.05621 9.31045 6287 ft 252 kts
2026-05-05 21:40 45.07350 9.31513 5954 ft 250 kts
2026-05-05 21:40 45.09062 9.31581 5629 ft 247 kts 354°
2026-05-05 21:40 45.10784 9.31378 5291 ft 245 kts 354°
2026-05-05 21:40 45.12406 9.31196 4989 ft 243 kts 354°
2026-05-05 21:41 45.14101 9.31007 4664 ft 241 kts 354°
2026-05-05 21:41 45.15759 9.30823 4335 ft 239 kts 354°
2026-05-05 21:41 45.17415 9.30639 4028 ft 237 kts 355°
2026-05-05 21:41 45.19046 9.30453 3727 ft 234 kts 355°
2026-05-05 21:42 45.20677 9.30270 3418 ft 231 kts 355°
2026-05-05 21:42 45.22267 9.30094 3113 ft 229 kts 356°
2026-05-05 21:42 45.23825 9.29925 2999 ft 217 kts 356°
2026-05-05 21:42 45.25280 9.29769 3021 ft 200 kts 356°
2026-05-05 21:43 45.26624 9.29626 3021 ft 193 kts 356°
2026-05-05 21:43 45.27972 9.29481 3018 ft 190 kts 356°
2026-05-05 21:43 45.29285 9.29341 3005 ft 191 kts 356°
2026-05-05 21:43 45.30631 9.29198 2828 ft 195 kts 356°
2026-05-05 21:44 45.31982 9.29052 2593 ft 187 kts 356°
2026-05-05 21:44 45.33224 9.28918 2361 ft 174 kts 356°
2026-05-05 21:44 45.34392 9.28793 2134 ft 164 kts 356°
2026-05-05 21:44 45.35496 9.28676 1905 ft 152 kts 356°
2026-05-05 21:45 45.36481 9.28569 1716 ft 133 kts 356°
2026-05-05 21:45 45.37423 9.28468 1555 ft 135 kts 357°
2026-05-05 21:45 45.38343 9.28368 1340 ft 132 kts 356°
2026-05-05 21:45 45.39260 9.28270 1179 ft 131 kts 356°
2026-05-05 21:46 45.40165 9.28173 1011 ft 130 kts 356°
2026-05-05 21:46 45.41071 9.28071 850 ft 130 kts 355°
2026-05-05 21:46 45.41974 9.27972 692 ft 129 kts 355°
2026-05-05 21:46 45.42874 9.27880 505 ft 129 kts 357°
2026-05-05 21:47 45.43762 9.27787 355 ft 123 kts 356°
2026-05-05 21:47 45.44514 9.27705 353 ft 88 kts 356°
2026-05-05 21:47 45.44826 9.27667 355 ft 17 kts 345°
2026-05-05 21:47 45.44912 9.27575 356 ft 17 kts 310°
2026-05-05 21:48 45.44978 9.27454 356 ft 12 kts 307°
2026-05-05 21:48 45.45036 9.27336 356 ft 15 kts 303°
2026-05-05 21:48 45.45082 9.27207 356 ft 15 kts 293°
2026-05-05 21:48 45.45118 9.27092 355 ft 14 kts 292°
2026-05-05 21:49 45.45159 9.26947 355 ft 16 kts 289°
2026-05-05 21:49 45.45164 9.26793 355 ft 16 kts 263°
2026-05-05 21:49 45.45190 9.26648 355 ft 16 kts 294°
2026-05-05 21:49 45.45237 9.26501 356 ft 12 kts 294°
2026-05-05 21:50 45.45278 9.26407 356 ft 10 kts 308°
2026-05-05 21:50 45.45324 9.26351 357 ft 6 kts 333°
2026-05-05 21:50 45.45377 9.26313 357 ft 10 kts 332°
2026-05-05 21:50 45.45416 9.26289 357 ft 3 kts 340°
2026-05-05 21:51 45.45434 9.26296 357 ft 5 kts 56°
2026-05-05 21:51 45.45446 9.26335 357 ft 4 kts 65°
2026-05-05 21:51 45.45451 9.26351 357 ft 0 kts 64°
2026-05-05 21:51 45.45451 9.26350 357 ft 0 kts 64°